カタログに戻る

GAOFEN 3 DEB

運用中SSO
NORAD 42678·DEBRIS·🇨🇳 China

打ち上げ Aug 9, 2016 から Taiyuan Satellite Launch Center

Loading…

次のパス (今後24時間)

TLE

最新Source: Space-Track

元期: Sep 14, 2026, 18:45 UTC

1 42678U 16049C   26257.78161930  .00000102  00000-0  40012-4 0  9998
2 42678  98.3170 267.6678 0009840  81.1767 279.0539 14.46794372526870

AllMySatでGAOFEN 3 DEBをリアルタイム追跡

Download on the App Store